When you browse on this site, cookies collect data to enhance your experience and personalize the content and advertising you see.
Visit our Privacy Policy to learn more. By continuing to use the site, you agree to this use of cookies and data.
  • In Sweden
  • List of Countries
  • For 7 days
  • Water Temperature
  • Weather Map
  • Weather Widgets
  • user-avatar
    Login

    Hourly Weather Bubanza

    Today, 28 March, Saturday

    Time Temperature Precipitation Wind Pressure Humidity
    00:00 +22°C° 2.9 mm 1 mps 675 mmHg 93%
    01:00 +22°C° 2.9 mm 1 mps 674 mmHg 95%
    02:00 +21°C° 0 mm 1 mps 674 mmHg 97%
    03:00 +21°C° 1.8 mm 1 mps 674 mmHg 97%
    04:00 +21°C° 1.8 mm 1 mps 674 mmHg 97%
    05:00 +21°C° 1.8 mm 1 mps 674 mmHg 97%
    06:00 +19°C° 0.5 mm 0 mps 674 mmHg 96%
    07:00 +19°C° 0.5 mm 0 mps 675 mmHg 95%
    08:00 +22°C° 0 mm 1 mps 676 mmHg 93%
    09:00 +23°C° 0.1 mm 1 mps 676 mmHg 90%
    10:00 +22°C° 0.1 mm 0 mps 676 mmHg 88%
    11:00 +22°C° 0.1 mm 0 mps 676 mmHg 85%
    12:00 +25°C° 0.6 mm 1 mps 675 mmHg 83%
    13:00 +26°C° 0.6 mm 1 mps 675 mmHg 80%
    14:00 +27°C° 0 mm 1 mps 674 mmHg 75%
    15:00 +26°C° 0.7 mm 1 mps 674 mmHg 79%
    16:00 +26°C° 0.7 mm 1 mps 673 mmHg 82%
    17:00 +25°C° 0.7 mm 1 mps 672 mmHg 86%
    18:00 +24°C° 0.1 mm 1 mps 673 mmHg 87%
    19:00 +23°C° 0.1 mm 1 mps 673 mmHg 88%
    20:00 +23°C° 0.1 mm 1 mps 673 mmHg 89%
    21:00 +20°C° 0 mm 0 mps 674 mmHg 89%
    22:00 +20°C° 0 mm 0 mps 674 mmHg 88%
    23:00 +20°C° 0 mm 0 mps 674 mmHg 87%

    Tomorrow, 29 March, Sunday

    Time Temperature Precipitation Wind Pressure Humidity
    00:00 +20°C° 0 mm 0 mps 673 mmHg 87%
    01:00 +20°C° 0 mm 0 mps 673 mmHg 87%
    02:00 +20°C° 0 mm 0 mps 673 mmHg 87%
    03:00 +20°C° 0.1 mm 0 mps 673 mmHg 87%
    04:00 +20°C° 0.1 mm 0 mps 673 mmHg 87%
    05:00 +20°C° 0.1 mm 0 mps 672 mmHg 87%
    06:00 +21°C° 0 mm 0 mps 674 mmHg 86%
    07:00 +21°C° 0 mm 0 mps 675 mmHg 84%
    08:00 +22°C° 0 mm 0 mps 676 mmHg 83%
    09:00 +23°C° 0.4 mm 0 mps 675 mmHg 79%
    10:00 +26°C° 0.4 mm 1 mps 675 mmHg 75%
    11:00 +28°C° 0.4 mm 1 mps 675 mmHg 72%
    12:00 +28°C° 0.9 mm 1 mps 674 mmHg 71%
    13:00 +28°C° 0.9 mm 1 mps 674 mmHg 71%
    14:00 +28°C° 0.9 mm 1 mps 673 mmHg 71%
    15:00 +28°C° 0.7 mm 1 mps 673 mmHg 75%
    16:00 +27°C° 0.7 mm 1 mps 672 mmHg 79%
    17:00 +25°C° 0.7 mm 0 mps 672 mmHg 83%
    18:00 +23°C° 0.1 mm 0 mps 672 mmHg 85%
    19:00 +24°C° 0.1 mm 1 mps 672 mmHg 87%
    20:00 +22°C° 0.1 mm 1 mps 672 mmHg 89%
    21:00 +22°C° 0 mm 1 mps 673 mmHg 89%
    22:00 +22°C° 0 mm 1 mps 673 mmHg 89%
    23:00 +21°C° 0 mm 1 mps 673 mmHg 88%

    Day after tomorrow, 30 March, Monday

    Time Temperature Precipitation Wind Pressure Humidity
    00:00 +21°C° 0 mm 1 mps 672 mmHg 88%
    01:00 +21°C° 0 mm 1 mps 672 mmHg 89%
    02:00 +21°C° 0 mm 1 mps 672 mmHg 89%
    03:00 +21°C° 0 mm 1 mps 672 mmHg 89%
    04:00 +21°C° 0 mm 1 mps 672 mmHg 89%
    05:00 +20°C° 0 mm 1 mps 672 mmHg 88%
    06:00 +22°C° 0 mm 1 mps 673 mmHg 86%
    07:00 +23°C° 0 mm 1 mps 674 mmHg 83%
    08:00 +24°C° 0 mm 1 mps 675 mmHg 80%
    09:00 +26°C° 0.3 mm 1 mps 675 mmHg 76%
    10:00 +27°C° 0.3 mm 1 mps 674 mmHg 71%
    11:00 +29°C° 0.3 mm 1 mps 674 mmHg 67%
    12:00 +29°C° 0.6 mm 1 mps 674 mmHg 64%
    13:00 +30°C° 0.6 mm 1 mps 673 mmHg 60%
    14:00 +31°C° 0.6 mm 1 mps 672 mmHg 57%
    15:00 +30°C° 0.3 mm 1 mps 672 mmHg 63%
    16:00 +29°C° 0.3 mm 1 mps 672 mmHg 69%
    17:00 +28°C° 0.3 mm 1 mps 671 mmHg 75%
    18:00 +26°C° 0.2 mm 1 mps 671 mmHg 79%
    19:00 +25°C° 0.2 mm 1 mps 672 mmHg 83%
    20:00 +23°C° 0.2 mm 1 mps 672 mmHg 87%
    21:00 +22°C° 0 mm 1 mps 672 mmHg 87%
    22:00 +22°C° 0 mm 1 mps 673 mmHg 87%
    23:00 +22°C° 0 mm 1 mps 673 mmHg 87%

    31 March, Tuesday

    Time Temperature Precipitation Wind Pressure Humidity
    00:00 +21°C° 0 mm 1 mps 673 mmHg 88%
    01:00 +21°C° 0 mm 1 mps 672 mmHg 89%
    02:00 +21°C° 0 mm 1 mps 672 mmHg 90%
    03:00 +21°C° 0 mm 1 mps 672 mmHg 89%
    04:00 +21°C° 0 mm 1 mps 672 mmHg 89%
    05:00 +21°C° 0 mm 1 mps 672 mmHg 89%
    06:00 +22°C° 0 mm 1 mps 673 mmHg 86%
    07:00 +23°C° 0 mm 1 mps 674 mmHg 83%
    08:00 +25°C° 0 mm 1 mps 674 mmHg 80%
    09:00 +26°C° 0 mm 1 mps 674 mmHg 76%
    10:00 +27°C° 0 mm 1 mps 674 mmHg 71%
    11:00 +28°C° 0 mm 1 mps 674 mmHg 66%
    12:00 +28°C° 0 mm 1 mps 673 mmHg 64%
    13:00 +29°C° 0 mm 1 mps 673 mmHg 61%
    14:00 +30°C° 0 mm 1 mps 672 mmHg 59%
    15:00 +29°C° 0.3 mm 1 mps 672 mmHg 65%
    16:00 +28°C° 0.3 mm 1 mps 672 mmHg 72%
    17:00 +26°C° 0.3 mm 0 mps 672 mmHg 78%
    18:00 +26°C° 0.1 mm 1 mps 672 mmHg 81%
    19:00 +25°C° 0.1 mm 1 mps 672 mmHg 84%
    20:00 +23°C° 0.1 mm 1 mps 673 mmHg 87%
    21:00 +23°C° 0 mm 1 mps 673 mmHg 87%
    22:00 +23°C° 0 mm 1 mps 673 mmHg 87%
    23:00 +22°C° 0 mm 1 mps 673 mmHg 87%

    1 April, Wednesday

    Time Temperature Precipitation Wind Pressure Humidity
    00:00 +22°C° 0 mm 1 mps 673 mmHg 87%
    01:00 +22°C° 0 mm 1 mps 672 mmHg 88%
    02:00 +22°C° 0 mm 1 mps 672 mmHg 88%
    03:00 +21°C° 0 mm 1 mps 672 mmHg 88%
    04:00 +21°C° 0 mm 1 mps 672 mmHg 88%
    05:00 +21°C° 0 mm 1 mps 672 mmHg 88%
    06:00 +23°C° 0 mm 1 mps 673 mmHg 84%
    07:00 +24°C° 0 mm 1 mps 674 mmHg 81%
    08:00 +26°C° 0 mm 1 mps 675 mmHg 77%
    09:00 +27°C° 0 mm 1 mps 675 mmHg 70%
    10:00 +29°C° 0 mm 1 mps 675 mmHg 62%
    11:00 +31°C° 0 mm 1 mps 675 mmHg 55%
    12:00 +31°C° 0.4 mm 1 mps 674 mmHg 58%
    13:00 +31°C° 0.4 mm 1 mps 673 mmHg 62%
    14:00 +30°C° 0.4 mm 1 mps 672 mmHg 65%
    15:00 +30°C° 0.3 mm 1 mps 672 mmHg 69%
    16:00 +29°C° 0.3 mm 1 mps 671 mmHg 72%
    17:00 +29°C° 0.3 mm 1 mps 671 mmHg 76%
    18:00 +27°C° 0.1 mm 1 mps 671 mmHg 79%
    19:00 +25°C° 0.1 mm 1 mps 672 mmHg 82%
    20:00 +23°C° 0.1 mm 1 mps 672 mmHg 85%
    21:00 +23°C° 0 mm 1 mps 672 mmHg 85%
    22:00 +23°C° 0 mm 1 mps 672 mmHg 84%
    23:00 +23°C° 0 mm 1 mps 672 mmHg 84%

    2 April, Thursday

    Time Temperature Precipitation Wind Pressure Humidity
    00:00 +22°C° 0 mm 1 mps 672 mmHg 84%
    01:00 +22°C° 0 mm 1 mps 672 mmHg 84%
    02:00 +22°C° 0 mm 1 mps 671 mmHg 85%
    03:00 +22°C° 0 mm 1 mps 671 mmHg 85%
    04:00 +22°C° 0 mm 1 mps 671 mmHg 85%
    05:00 +21°C° 0 mm 1 mps 671 mmHg 85%
    06:00 +23°C° 0 mm 1 mps 672 mmHg 81%
    07:00 +23°C° 0 mm 0 mps 673 mmHg 77%
    08:00 +24°C° 0 mm 0 mps 674 mmHg 73%
    09:00 +26°C° 0 mm 0 mps 674 mmHg 66%
    10:00 +30°C° 0 mm 1 mps 674 mmHg 59%
    11:00 +31°C° 0 mm 1 mps 674 mmHg 52%
    12:00 +32°C° 0 mm 1 mps 673 mmHg 50%
    13:00 +32°C° 0 mm 1 mps 672 mmHg 48%
    14:00 +33°C° 0 mm 1 mps 671 mmHg 46%
    15:00 +32°C° 0.1 mm 1 mps 671 mmHg 53%
    16:00 +31°C° 0.1 mm 1 mps 671 mmHg 60%
    17:00 +30°C° 0.1 mm 1 mps 671 mmHg 67%
    18:00 +28°C° 0 mm 1 mps 671 mmHg 71%
    19:00 +26°C° 0 mm 1 mps 671 mmHg 75%
    20:00 +24°C° 0 mm 1 mps 671 mmHg 79%
    21:00 +24°C° 0 mm 1 mps 671 mmHg 79%
    22:00 +23°C° 0 mm 1 mps 671 mmHg 79%
    23:00 +23°C° 0 mm 1 mps 671 mmHg 79%
    Show more